TimeCST,TemperatureF,Dew PointF,Humidity,Sea Level PressureIn,VisibilityMPH,Wind Direction,Wind SpeedMPH,Gust SpeedMPH,PrecipitationIn,Events,Conditions,WindDirDegrees,DateUTC
12:15 AM,56.3,40.5,55,29.97,10.0,ESE,4.6,-,N/A,,Clear,120,2013-03-04 06:15:00
12:55 AM,55.0,40.5,58,29.96,10.0,ESE,4.6,-,N/A,,Clear,110,2013-03-04 06:55:00
1:15 AM,54.0,40.3,60,29.95,10.0,ESE,4.6,-,N/A,,Clear,120,2013-03-04 07:15:00
1:35 AM,51.6,38.7,61,29.95,10.0,East,3.5,-,N/A,,Clear,90,2013-03-04 07:35:00
1:55 AM,50.9,39.0,64,29.95,10.0,ENE,3.5,-,N/A,,Clear,60,2013-03-04 07:55:00
2:15 AM,51.1,39.2,64,29.94,10.0,East,3.5,-,N/A,,Clear,80,2013-03-04 08:15:00
2:35 AM,47.1,33.4,59,29.94,10.0,Calm,Calm,-,N/A,,Clear,0,2013-03-04 08:35:00
2:55 AM,44.8,33.8,65,29.93,10.0,NW,3.5,-,N/A,,Clear,320,2013-03-04 08:55:00
3:15 AM,44.4,34.2,67,29.93,10.0,WNW,5.8,-,N/A,,Clear,300,2013-03-04 09:15:00
3:35 AM,43.3,32.9,67,29.92,10.0,NW,3.5,-,N/A,,Clear,320,2013-03-04 09:35:00
3:55 AM,42.8,32.9,68,29.92,10.0,WNW,5.8,-,N/A,,Clear,300,2013-03-04 09:55:00
4:15 AM,43.3,34.2,70,29.92,10.0,WNW,5.8,-,N/A,,Clear,300,2013-03-04 10:15:00
4:35 AM,42.4,33.6,71,29.91,10.0,NW,4.6,-,N/A,,Clear,310,2013-03-04 10:35:00
4:55 AM,41.0,32.4,71,29.91,10.0,NW,6.9,-,N/A,,Clear,310,2013-03-04 10:55:00
5:15 AM,41.0,33.4,74,29.91,10.0,NW,3.5,-,N/A,,Clear,310,2013-03-04 11:15:00
5:35 AM,41.4,33.1,72,29.91,10.0,NW,6.9,-,N/A,,Clear,310,2013-03-04 11:35:00
5:55 AM,41.5,33.6,73,29.91,10.0,WNW,4.6,-,N/A,,Clear,290,2013-03-04 11:55:00
6:15 AM,41.5,33.6,73,29.92,10.0,NW,6.9,-,N/A,,Clear,310,2013-03-04 12:15:00
6:35 AM,41.4,33.4,73,29.92,10.0,NW,4.6,-,N/A,,Clear,310,2013-03-04 12:35:00
6:55 AM,41.4,34.0,75,29.92,10.0,NW,5.8,-,N/A,,Clear,310,2013-03-04 12:55:00
7:15 AM,39.7,32.5,75,29.92,10.0,NNW,5.8,-,N/A,,Clear,330,2013-03-04 13:15:00
7:35 AM,43.3,35.4,74,29.93,10.0,WNW,5.8,-,N/A,,Clear,290,2013-03-04 13:35:00
7:55 AM,46.0,37.4,72,29.93,10.0,WNW,3.5,-,N/A,,Clear,300,2013-03-04 13:55:00
8:15 AM,49.1,39.2,69,29.92,10.0,Calm,Calm,-,N/A,,Clear,0,2013-03-04 14:15:00
8:35 AM,53.8,42.4,65,29.93,10.0,Calm,Calm,-,N/A,,Clear,0,2013-03-04 14:35:00
8:55 AM,57.0,45.1,64,29.93,10.0,Calm,Calm,-,N/A,,Clear,0,2013-03-04 14:55:00
9:15 AM,59.7,47.5,64,29.93,10.0,SSE,4.6,-,N/A,,Clear,160,2013-03-04 15:15:00
9:35 AM,62.1,48.7,62,29.92,10.0,South,9.2,-,N/A,,Clear,190,2013-03-04 15:35:00
9:55 AM,63.3,48.6,59,29.93,10.0,SSW,5.8,-,N/A,,Clear,210,2013-03-04 15:55:00
10:15 AM,66.2,47.8,52,29.92,10.0,SSW,9.2,-,N/A,,Clear,210,2013-03-04 16:15:00
10:35 AM,67.5,47.1,48,29.91,10.0,SSW,11.5,-,N/A,,Clear,210,2013-03-04 16:35:00
10:55 AM,70.3,46.6,43,29.90,10.0,SSW,9.2,-,N/A,,Clear,210,2013-03-04 16:55:00
11:15 AM,72.5,45.3,38,29.89,10.0,SSW,8.1,-,N/A,,Clear,200,2013-03-04 17:15:00
11:55 AM,75.6,44.1,32,29.87,10.0,SSW,5.8,-,N/A,,Clear,200,2013-03-04 17:55:00
12:15 PM,77.5,44.1,30,29.86,10.0,SSW,5.8,-,N/A,,Clear,210,2013-03-04 18:15:00
12:55 PM,80.2,42.3,26,29.83,10.0,SW,10.4,-,N/A,,Clear,220,2013-03-04 18:55:00
1:15 PM,81.9,41.0,23,29.82,10.0,South,9.2,-,N/A,,Clear,180,2013-03-04 19:15:00
1:35 PM,82.9,40.1,22,29.81,10.0,SSW,6.9,18.4,N/A,,Clear,200,2013-03-04 19:35:00
1:55 PM,83.7,40.5,22,29.79,10.0,South,9.2,17.3,N/A,,Clear,180,2013-03-04 19:55:00
2:15 PM,84.4,40.6,21,29.79,10.0,South,5.8,-,N/A,,Clear,170,2013-03-04 20:15:00
2:35 PM,85.5,39.4,20,29.78,10.0,South,9.2,-,N/A,,Clear,180,2013-03-04 20:35:00
2:55 PM,86.4,37.9,18,29.77,10.0,SSW,10.4,-,N/A,,Clear,200,2013-03-04 20:55:00
3:35 PM,86.9,35.6,16,29.76,10.0,SSW,3.5,-,N/A,,Clear,210,2013-03-04 21:35:00
3:55 PM,88.7,34.7,15,29.76,10.0,SSW,3.5,-,N/A,,Clear,210,2013-03-04 21:55:00
4:15 PM,88.0,31.8,13,29.76,10.0,WSW,4.6,-,N/A,,Clear,250,2013-03-04 22:15:00
4:35 PM,88.3,31.8,13,29.75,10.0,WSW,8.1,-,N/A,,Clear,250,2013-03-04 22:35:00
4:55 PM,88.9,31.5,13,29.74,10.0,WSW,3.5,-,N/A,,Clear,240,2013-03-04 22:55:00
5:15 PM,88.5,31.1,13,29.74,10.0,SSW,10.4,-,N/A,,Clear,200,2013-03-04 23:15:00
5:35 PM,87.6,31.1,13,29.74,10.0,South,5.8,-,N/A,,Clear,190,2013-03-04 23:35:00
5:55 PM,85.6,32.0,15,29.74,10.0,South,6.9,-,N/A,,Clear,180,2013-03-04 23:55:00
6:15 PM,83.7,30.9,15,29.74,10.0,South,5.8,-,N/A,,Clear,180,2013-03-05 00:15:00
6:35 PM,81.5,30.2,16,29.74,10.0,SSE,5.8,-,N/A,,Clear,160,2013-03-05 00:35:00
6:55 PM,78.6,30.2,17,29.74,10.0,SSE,3.5,-,N/A,,Clear,160,2013-03-05 00:55:00
7:15 PM,76.5,30.0,18,29.74,10.0,South,4.6,-,N/A,,Clear,170,2013-03-05 01:15:00
7:35 PM,75.4,30.2,19,29.75,10.0,South,5.8,-,N/A,,Clear,170,2013-03-05 01:35:00
7:55 PM,73.6,30.2,20,29.74,10.0,South,5.8,-,N/A,,Clear,170,2013-03-05 01:55:00
8:35 PM,68.5,31.8,26,29.76,2.0,East,4.6,-,N/A,,Haze,80,2013-03-05 02:35:00
8:55 PM,67.3,31.6,27,29.76,10.0,Calm,Calm,-,N/A,,Clear,0,2013-03-05 02:55:00
9:15 PM,63.9,32.4,31,29.77,10.0,Calm,Calm,-,N/A,,Clear,0,2013-03-05 03:15:00
9:35 PM,61.3,33.1,35,29.77,4.0,ENE,3.5,-,N/A,,Haze,60,2013-03-05 03:35:00
9:55 PM,65.3,33.1,30,29.78,10.0,East,4.6,-,N/A,,Clear,80,2013-03-05 03:55:00
10:15 PM,64.0,31.5,30,29.80,7.0,ENE,3.5,-,N/A,,Clear,60,2013-03-05 04:15:00
10:35 PM,64.0,32.5,31,29.80,10.0,Calm,Calm,-,N/A,,Clear,0,2013-03-05 04:35:00
10:55 PM,62.2,31.5,31,29.80,10.0,Calm,Calm,-,N/A,,Clear,0,2013-03-05 04:55:00
11:15 PM,63.3,33.8,33,29.80,10.0,East,4.6,-,N/A,,Clear,100,2013-03-05 05:15:00
11:35 PM,60.1,33.1,36,29.80,10.0,Calm,Calm,-,N/A,,Clear,0,2013-03-05 05:35:00
11:55 PM,59.0,32.9,37,29.80,10.0,Calm,Calm,-,N/A,,Clear,0,2013-03-05 05:55:00